CAPE
20 16 23 32 47 45 167 136 345 775 1071 1100 1084 1103 1175 1469 1514 1599 1469 1381 1258 1104 1113 1058 1023 825 735 626 514 501 540 618 559 556 585 490 382 543 501 460 413 218
12 12 15 22 23 14 8 12 80 196 680 1080 1092 1180 1269 1291 1423 1451 1245 1144 1419 1224 1010 954 899 839 858 916 738 658 844 732 542 578 575 466 282 434 483 609 435 238
9 10 13 13 14 15 15 2 5 109 294 676 1040 1176 1140 1114 1365 1458 1192 1168 1061 1211 1090 797 705 650 628 806 799 667 744 668 474 439 393 325 375 406 501 576 625 493
8 9 11 13 14 11 10 9 10 24 102 256 526 934 966 986 1103 1174 1097 1170 1098 1022 817 610 786 692 768 755 694 501 689 723 582 528 465 509 462 419 502 769 840 618
8 6 8 11 12 10 11 7 4 3 4 32 116 224 507 891 914 894 1038 888 950 1025 911 775 753 712 618 542 604 590 703 713 630 523 434 497 424 346 378 516 691 584
8 3 3 2 8 10 7 2 0 2 2 4 1 27 186 437 733 795 818 881 804 680 594 660 553 470 443 317 398 424 469 623 506 480 453 474 420 322 320 396 500 627
8 10 10 10 9 11 7 2 2 1 4 6 6 9 32 203 598 701 710 734 647 593 551 499 466 369 440 444 397 375 400 465 435 509 514 502 317 348 356 297 373 500
9 10 11 11 12 13 8 1 2 1 3 4 8 28 31 92 458 548 504 488 426 379 333 311 351 354 441 503 380 408 558 435 415 427 422 399 440 482 328 343 327 710
5 6 8 10 10 15 10 3 1 1 2 5 12 30 25 17 19 70 49 102 148 232 274 235 190 306 370 381 349 363 416 424 403 344 406 346 353 349 317 286 290 396
2 2 7 8 7 12 11 4 4 1 2 2 6 17 31 5 54 0 0 0 2 133 251 276 266 321 360 342 361 358 341 427 414 408 349 345 314 327 284 254 212 521
2 4 6 4 6 10 12 8 1 1 1 2 11 28 33 26 0 0 0 0 1 266 394 355 132 275 284 286 323 371 375 376 336 319 347 355 310 336 358 274 235 373
1 2 6 5 6 8 10 6 4 2 1 0 5 24 31 7 1 0 3 0 2 267 390 371 344 358 379 338 280 287 259 311 289 273 278 257 292 316 250 270 474 447
3 5 6 6 6 6 6 5 2 2 1 0 0 2 18 32 1 0 1 3 102 65 290 302 317 303 273 287 266 307 299 266 234 221 345 411 313 359 294 289 357 431
3 2 4 4 4 4 6 6 4 3 1 0 0 0 8 10 2 2 9 20 113 49 98 134 234 190 150 174 251 266 292 308 317 286 233 250 305 376 325 269 276 371
2 4 5 3 4 4 4 5 7 6 4 1 0 0 0 5 1 2 2 11 59 24 33 65 83 62 52 81 103 174 280 340 315 326 275 367 286 229 236 239 295 303
0 4 5 5 4 4 6 6 6 6 6 4 1 0 0 0 0 0 1 4 10 28 12 13 6 5 19 60 115 147 188 229 290 267 221 249 304 252 280 288 286 251
0 1 4 3 4 5 7 6 6 7 6 6 3 0 0 0 0 1 4 2 4 10 22 11 14 4 0 12 66 135 164 224 249 317 325 228 300 293 247 262 244 254
0 0 0 2 4 4 4 6 8 7 6 7 7 4 2 0 0 0 0 2 5 1 8 24 62 16 3 1 15 77 190 220 244 290 273 277 352 493 435 274 245 268
0 0 0 0 1 4 10 8 8 8 8 10 9 11 7 4 0 0 0 0 1 9 4 13 29 50 10 17 55 44 47 24 92 236 283 314 373 390 476 408 234 252
0 0 0 0 0 1 4 5 6 8 11 9 10 10 11 6 6 1 0 0 0 0 2 3 8 7 32 46 28 32 43 64 120 179 262 338 364 368 385 332 300 217
0 0 0 1 0 0 1 1 2 5 7 10 10 10 9 8 11 8 5 2 1 0 0 1 5 1 12 18 2 0 4 51 96 212 288 318 302 265 319 211 272 275
0 0 0 0 0 0 1 2 4 3 6 6 8 10 10 5 1 12 10 7 4 0 0 0 0 0 0 5 17 0 0 0 61 156 226 255 247 207 164 160 118 0
0 0 0 1 0 0 0 3 2 4 10 4 3 6 6 4 7 8 12 14 13 4 1 1 2 0 0 1 2 1 9 73 116 91 145 194 206 185 143 119 0 0
0 1 0 1 0 1 1 0 1 2 4 4 1 1 3 2 9 11 7 12 12 14 15 6 5 2 0 0 0 4 6 6 40 125 138 164 167 159 90 88 74 10
0 1 2 2 1 4 2 0 0 4 5 4 5 3 2 1 2 1 2 1 1 1 6 10 8 5 0 0 1 0 2 6 4 26 32 88 87 55 54 62 69 10
1 1 5 3 0 5 3 0 0 0 1 1 2 1 1 2 4 3 2 2 1 0 0 4 6 0 0 0 1 1 0 1 7 35 46 28 37 49 59 48 42 39
Wind_Speed
nan nan nan nan nan nan 27 26 25 25 26 26 26 26 27 28 27 28 31 33 33 33 32 32 31 32 31 34 32 27 28 24 22 23 23 23 22 24 25 25 26 25
nan nan nan nan nan nan nan nan nan 24 24 26 27 26 26 27 27 28 30 28 32 35 36 36 36 34 33 34 32 27 29 27 22 23 21 22 23 25 25 25 24 25
nan nan nan nan nan nan nan nan nan 25 24 23 24 26 26 28 28 29 32 33 32 33 34 35 34 33 31 32 30 29 30 28 22 23 21 21 21 24 25 25 25 24
nan nan nan nan nan nan nan nan nan nan 24 23 22 23 26 28 29 29 31 30 32 33 34 34 34 33 32 30 29 30 30 26 23 24 22 23 24 24 24 25 25 25
nan nan nan nan nan nan nan nan nan nan nan nan 22 23 25 28 29 29 30 32 32 33 34 35 35 35 33 32 31 29 28 26 24 24 24 23 23 22 23 23 23 24
nan nan nan nan nan nan nan nan nan nan nan nan nan nan 26 27 30 29 28 30 33 34 32 35 36 34 34 32 32 30 28 27 26 25 24 23 22 22 20 19 18 23
nan nan nan nan nan nan nan nan nan nan nan nan nan nan nan 27 28 28 29 31 31 33 32 34 36 33 32 32 30 29 29 28 24 21 20 20 23 22 20 18 19 21
nan nan nan nan nan nan nan nan nan nan nan nan nan nan nan nan 29 31 32 31 30 30 31 33 35 31 29 30 28 28 27 27 23 22 23 22 23 21 20 18 18 22
nan nan nan nan nan nan nan nan nan nan nan nan nan nan nan nan nan nan nan 30 28 28 31 34 34 30 27 28 30 25 25 27 24 23 21 22 22 22 21 16 16 21
nan nan nan nan nan nan nan nan nan nan nan nan nan nan nan nan nan nan nan nan nan 27 30 33 35 31 27 26 25 24 22 24 28 25 20 19 23 25 24 20 20 20
nan nan nan nan nan nan nan nan nan nan nan nan nan nan nan nan nan nan nan nan nan 28 31 33 33 29 24 25 25 25 27 27 27 26 23 23 24 26 23 19 17 16
nan nan nan nan nan nan nan nan nan nan nan nan nan nan nan nan nan nan nan nan nan 30 34 32 32 33 32 29 25 23 24 25 26 24 23 24 26 27 26 23 23 17
nan nan nan nan nan nan nan nan nan nan nan nan nan nan nan nan nan nan nan nan 33 nan 42 39 39 37 34 33 29 28 27 25 27 26 25 27 28 25 26 27 23 17
nan nan nan nan nan nan nan nan nan nan nan nan nan nan nan nan nan nan nan nan 34 nan nan 38 37 36 33 31 30 29 28 29 28 27 25 26 26 25 26 27 24 20
nan nan nan nan nan nan nan nan nan nan nan nan nan nan nan nan nan nan nan nan nan nan nan nan nan nan nan nan 29 29 29 27 28 28 27 26 26 25 25 25 24 20
nan nan nan nan nan nan nan nan nan nan nan nan nan nan nan nan nan nan nan nan nan nan nan nan nan nan nan nan 30 30 28 27 28 30 29 26 25 26 27 26 25 22
nan nan nan nan nan nan nan nan nan nan nan nan nan nan nan nan nan nan nan nan nan nan nan nan nan nan nan nan nan 32 30 26 26 27 29 28 26 27 26 26 27 25
nan nan nan nan nan nan nan nan nan nan nan nan nan nan nan nan nan nan nan nan nan nan nan nan nan nan nan nan nan nan 28 24 22 24 27 29 28 26 26 27 27 27
nan nan nan nan nan nan nan nan nan nan nan nan nan nan nan nan nan nan nan nan nan nan nan nan nan nan nan nan nan nan nan nan nan 21 24 27 29 29 27 27 29 26
nan nan nan nan nan nan nan nan nan nan nan nan nan nan nan nan nan nan nan nan nan nan nan nan nan nan nan nan nan nan nan nan 21 23 24 26 27 28 27 31 30 26
nan nan nan nan nan nan nan nan nan nan nan nan nan nan nan nan nan nan nan nan nan nan nan nan nan nan nan nan nan nan nan nan nan 25 27 29 29 28 31 30 26 25
nan nan nan nan nan nan nan nan nan nan nan nan nan nan nan nan nan nan nan nan nan nan nan nan nan nan nan nan nan nan nan nan nan 28 30 32 34 36 37 38 38 nan
nan nan nan nan nan nan nan nan nan nan nan nan nan nan nan nan nan nan nan nan nan nan nan nan nan nan nan nan nan nan nan nan 26 nan 32 35 36 37 39 41 nan nan
nan nan nan nan nan nan nan nan nan nan nan nan nan nan nan nan nan nan nan nan nan nan nan nan nan nan nan nan nan nan nan nan nan 30 32 35 36 39 nan nan nan nan
nan nan nan nan nan nan nan nan nan nan nan nan nan nan nan nan nan nan nan nan nan nan nan nan nan nan nan nan nan nan nan nan nan nan nan nan nan nan nan nan nan nan
nan nan nan nan nan nan nan nan nan nan nan nan nan nan nan nan nan nan nan nan nan nan nan nan nan nan nan nan nan nan nan nan nan nan nan nan nan nan nan nan nan nan
Wind_Direction
nan nan nan nan nan nan 281 282 286 292 299 299 300 302 303 304 304 305 307 306 306 306 305 303 303 303 296 290 290 289 282 284 285 279 278 273 270 272 271 276 275 275
nan nan nan nan nan nan nan nan nan 286 292 298 300 302 303 303 304 305 300 302 306 307 307 306 303 300 296 286 283 282 274 270 263 262 268 275 271 267 268 273 272 269
nan nan nan nan nan nan nan nan nan 289 294 294 297 299 302 304 306 307 306 306 305 306 306 307 307 303 297 292 287 279 275 273 271 266 259 261 261 263 264 266 266 271
nan nan nan nan nan nan nan nan nan nan 283 284 285 290 294 298 300 303 302 301 305 308 310 311 312 306 296 290 287 280 279 279 273 271 264 250 248 251 261 264 264 266
nan nan nan nan nan nan nan nan nan nan nan nan 281 284 292 295 296 296 297 300 305 310 312 314 315 313 302 292 290 288 279 273 271 268 267 263 259 249 243 251 264 267
nan nan nan nan nan nan nan nan nan nan nan nan nan nan 288 290 292 291 293 298 305 309 314 315 317 316 307 302 301 295 282 273 269 268 268 266 259 255 254 257 261 270
nan nan nan nan nan nan nan nan nan nan nan nan nan nan nan 287 287 289 293 299 303 309 314 316 317 315 306 299 299 295 278 268 265 264 262 256 254 252 252 252 263 270
nan nan nan nan nan nan nan nan nan nan nan nan nan nan nan nan 282 287 291 294 301 309 315 317 316 312 306 300 295 287 278 267 268 273 271 268 257 251 249 243 248 268
nan nan nan nan nan nan nan nan nan nan nan nan nan nan nan nan nan nan nan 287 296 309 317 320 319 314 305 298 291 277 266 267 269 264 258 256 252 243 239 242 253 260
nan nan nan nan nan nan nan nan nan nan nan nan nan nan nan nan nan nan nan nan nan 304 313 318 318 311 298 292 288 282 272 258 254 260 253 244 238 235 234 228 228 241
nan nan nan nan nan nan nan nan nan nan nan nan nan nan nan nan nan nan nan nan nan 293 303 307 307 303 292 284 280 270 259 257 262 256 245 241 241 238 232 228 238 247
nan nan nan nan nan nan nan nan nan nan nan nan nan nan nan nan nan nan nan nan nan 288 293 295 297 290 274 261 264 267 259 253 248 245 237 233 230 228 231 229 233 244
nan nan nan nan nan nan nan nan nan nan nan nan nan nan nan nan nan nan nan nan 287 nan 284 287 290 291 279 260 249 245 248 251 253 250 242 236 233 230 231 236 231 231
nan nan nan nan nan nan nan nan nan nan nan nan nan nan nan nan nan nan nan nan 286 nan nan 290 291 288 277 262 255 250 244 246 246 242 238 239 239 232 229 231 231 227
nan nan nan nan nan nan nan nan nan nan nan nan nan nan nan nan nan nan nan nan nan nan nan nan nan nan nan nan 257 247 246 248 244 234 233 240 237 229 228 232 235 227
nan nan nan nan nan nan nan nan nan nan nan nan nan nan nan nan nan nan nan nan nan nan nan nan nan nan nan nan 253 252 246 245 242 234 230 231 233 231 228 231 235 237
nan nan nan nan nan nan nan nan nan nan nan nan nan nan nan nan nan nan nan nan nan nan nan nan nan nan nan nan nan 238 242 241 239 236 234 231 232 231 228 228 228 237
nan nan nan nan nan nan nan nan nan nan nan nan nan nan nan nan nan nan nan nan nan nan nan nan nan nan nan nan nan nan 232 240 246 242 233 230 226 226 229 231 232 234
nan nan nan nan nan nan nan nan nan nan nan nan nan nan nan nan nan nan nan nan nan nan nan nan nan nan nan nan nan nan nan nan nan 236 229 226 224 223 228 234 237 235
nan nan nan nan nan nan nan nan nan nan nan nan nan nan nan nan nan nan nan nan nan nan nan nan nan nan nan nan nan nan nan nan 239 227 228 229 230 233 233 234 232 233
nan nan nan nan nan nan nan nan nan nan nan nan nan nan nan nan nan nan nan nan nan nan nan nan nan nan nan nan nan nan nan nan nan 235 231 231 233 232 232 237 233 235
nan nan nan nan nan nan nan nan nan nan nan nan nan nan nan nan nan nan nan nan nan nan nan nan nan nan nan nan nan nan nan nan nan 242 238 235 232 227 231 233 233 nan
nan nan nan nan nan nan nan nan nan nan nan nan nan nan nan nan nan nan nan nan nan nan nan nan nan nan nan nan nan nan nan nan 249 nan 242 240 238 233 239 243 nan nan
nan nan nan nan nan nan nan nan nan nan nan nan nan nan nan nan nan nan nan nan nan nan nan nan nan nan nan nan nan nan nan nan nan 245 240 240 241 239 nan nan nan nan
nan nan nan nan nan nan nan nan nan nan nan nan nan nan nan nan nan nan nan nan nan nan nan nan nan nan nan nan nan nan nan nan nan nan nan nan nan nan nan nan nan nan
nan nan nan nan nan nan nan nan nan nan nan nan nan nan nan nan nan nan nan nan nan nan nan nan nan nan nan nan nan nan nan nan nan nan nan nan nan nan nan nan nan nan